Starlink 34141

operational
NORAD ID: 64020 Int'l Des: 2025-101 Owner: SPXS Country: US Constellation: starlink
LEOCIRCULAR

About Starlink 34141

Description loading...

Live Position

Loading 3D Globe...

Upcoming Passes

Altitude History

Altitude vs Time

uPlot chart will show altitude changes over time

Two-Line Element Set

1 64020U 25101AC 26061.29681472 .00023599 00000-0 86355-3 0 9993
2 64020 42.9998 39.7896 0000943 270.5496 89.5247 15.27610187 45929
Epoch: Mar 2, 2026 • Age: 29 hours

Current Status

Altitude 482.7 km
Velocity 7.63 km/s
Sub-Earth Point 22.14°N, 179.27°W
Launch Date May 14, 2025
Age 0.7 years
Type internet

Technical Details

Classification Payload
Mass 575.00 kg
Dry Mass 530.00 kg
Total Mass 575.00 kg
Length 0.30 m
Diameter 4.10 m
Span 29.00 m
Shape Box + pan
Manufacturer SPXS
Bus Type Starlink V2MO
Phase Status In Orbit
Owner/State SPXS/US

Large Constellations

Loading constellations...